Weather History for KHSV - September, 2012

Change the Weather History Date:

Sunday, September 2, 2012

  Actual Average Record
Temperature  
Mean Temperature 80 °F 78 °F  
Max Temperature 88 °F 89 °F 99 °F (1953)
Min Temperature 71 °F 67 °F 50 °F (1949)
Degree Days  
Heating Degree Days 0 0  
Month to date heating degree days 0 0  
Since 1 July heating degree days 0 0  
Cooling Degree Days 15 13  
Month to date cooling degree days 31 26  
Year to date cooling degree days 1872 1621  
Growing Degree Days 30 (Base 50)    
Moisture  
Dew Point 71 °F    
Average Humidity 83    
Maximum Humidity 94    
Minimum Humidity 62    
Precipitation  
Precipitation 0.52 in 0.11 in 3.61 in (1905)
Month to date precipitation 0.53 0.21  
Year to date precipitation 34.65 36.53  
Snow  
Snow 0.00 in - - ()
Month to date snowfall 0.0  
Since 1 July snowfall 0.0  
Since 1 September snowfall 0.0  
Snow Depth 0.00 in    
Sea Level Pressure  
Sea Level Pressure 29.95 in    
Wind  
Wind Speed 9 mph (South)    
Max Wind Speed 35 mph    
Max Gust Speed 45 mph    
Visibility 9 miles    
Events Rain , Thunderstorm    
T = Trace of Precipitation, MM = Missing Value Source: NWS Daily Summary

Daily Weather History Graph

Daily Weather History Graph

Search for Another Location

Airport or City:

Trip Planner

Search our weather history database for the weather conditions in past years. The results will help you decide how hot, cold, wet, or windy it might be!

Date:

Astronomy

Sep. 02, 2012 Rise Set
Actual Time 6:21 AM CDT 7:11 PM CDT
Civil Twilight 5:55 AM CDT 7:37 PM CDT
Nautical Twilight 5:25 AM CDT 8:07 PM CDT
Astronomical Twilight 4:53 AM CDT 8:38 PM CDT
Moon 8:07 PM CDT (9/2) 8:21 AM CDT (9/2)
Length of Visible Light 13h 41m
Length of Day
12h 50m
Waning Gibbous, 95% of the Moon is Illuminated
Sep 2
Waning Gibbous
Sep 8
Last Quarter
Sep 15
New
Sep 22
First Quarter
Sep 29
Full

Hourly Weather History & Observations

Time (CDT) Temp. Heat Index Dew Point Humidity Pressure Visibility Wind Dir Wind Speed Gust Speed Precip Events Conditions
12:53 AM 73.9 °F - 71.1 °F 91% 30.03 in 10.0 mi Calm Calm - N/A   Scattered Clouds
1:53 AM 73.9 °F - 71.1 °F 91% 30.01 in 10.0 mi South 4.6 mph - N/A   Scattered Clouds
2:53 AM 73.4 °F - 69.8 °F 88% 30.02 in 10.0 mi South 3.5 mph - N/A   Mostly Cloudy
3:53 AM 73.9 °F - 70.0 °F 87% 29.98 in 10.0 mi South 8.1 mph - N/A   Mostly Cloudy
4:53 AM 73.9 °F - 70.0 °F 87% 29.98 in 10.0 mi South 8.1 mph - N/A   Mostly Cloudy
5:53 AM 73.0 °F - 70.0 °F 90% 29.98 in 10.0 mi South 8.1 mph - N/A   Mostly Cloudy
6:53 AM 73.9 °F - 71.1 °F 91% 29.99 in 10.0 mi South 6.9 mph - N/A   Mostly Cloudy
7:53 AM 77.0 °F - 72.0 °F 84% 29.99 in 10.0 mi South 8.1 mph - N/A   Mostly Cloudy
8:53 AM 78.1 °F - 72.0 °F 81% 29.99 in 10.0 mi SSW 12.7 mph - N/A   Mostly Cloudy
9:39 AM 78.8 °F - 71.6 °F 78% 30.02 in 10.0 mi SW 9.2 mph - N/A Thunderstorm Thunderstorm
9:53 AM 78.1 °F - 72.0 °F 81% 30.00 in 10.0 mi SW 11.5 mph - 0.00 in Rain , Thunderstorm Light Thunderstorms and Rain
10:20 AM 78.8 °F - 71.6 °F 78% 30.02 in 10.0 mi SW 10.4 mph - 0.00 in   Overcast
10:53 AM 81.0 °F 85.2 °F 72.0 °F 74% 30.00 in 10.0 mi SW 11.5 mph - 0.00 in   Overcast
11:53 AM 84.0 °F 90.2 °F 73.0 °F 69% 29.98 in 10.0 mi SSW 11.5 mph 20.7 mph N/A   Mostly Cloudy
12:53 PM 82.9 °F 88.0 °F 72.0 °F 69% 29.96 in 10.0 mi SSW 12.7 mph 20.7 mph N/A   Overcast
1:53 PM 84.0 °F 90.2 °F 73.0 °F 69% 29.94 in 10.0 mi SSW 12.7 mph - N/A   Overcast
2:53 PM 88.0 °F 96.5 °F 73.9 °F 63% 29.90 in 10.0 mi SSW 16.1 mph - N/A   Mostly Cloudy
3:39 PM 87.8 °F 95.6 °F 73.4 °F 62% 29.89 in 10.0 mi South 15.0 mph 23.0 mph N/A   Mostly Cloudy
3:53 PM 87.1 °F 94.5 °F 73.0 °F 63% 29.86 in 10.0 mi SSW 15.0 mph 24.2 mph N/A Thunderstorm Thunderstorm
4:53 PM 84.0 °F 90.2 °F 73.0 °F 69% 29.86 in 10.0 mi South 12.7 mph - N/A Thunderstorm Thunderstorm
5:19 PM 80.6 °F 84.6 °F 71.6 °F 74% 29.94 in 2.0 mi WSW 34.5 mph 44.9 mph 0.00 in Rain , Thunderstorm Light Thunderstorms and Rain
5:21 PM 75.2 °F - 69.8 °F 83% 29.94 in 0.5 mi WSW 26.5 mph 44.9 mph 0.00 in Rain , Thunderstorm Light Thunderstorms and Rain
5:29 PM 71.6 °F - 66.2 °F 83% 29.94 in 1.5 mi West 15.0 mph 34.5 mph 0.21 in Rain , Thunderstorm Heavy Thunderstorms and Rain
5:41 PM 71.6 °F - 66.2 °F 83% 29.93 in 6.0 mi Calm Calm - 0.29 in Rain , Thunderstorm Light Thunderstorms and Rain
5:53 PM 71.1 °F - 66.9 °F 87% 29.90 in 10.0 mi SE 6.9 mph - 0.29 in Rain , Thunderstorm Light Thunderstorms and Rain
6:53 PM 71.1 °F - 68.0 °F 90% 29.88 in 10.0 mi SSE 5.8 mph - 0.01 in Rain , Thunderstorm Light Thunderstorms and Rain
7:29 PM 71.6 °F - 66.2 °F 83% 29.91 in 10.0 mi South 6.9 mph - 0.01 in   Mostly Cloudy
7:53 PM 71.1 °F - 68.0 °F 90% 29.90 in 10.0 mi South 4.6 mph - 0.01 in   Mostly Cloudy
8:53 PM 71.1 °F - 69.1 °F 93% 29.93 in 8.0 mi Calm Calm - 0.10 in Rain Rain
9:33 PM 71.6 °F - 69.8 °F 94% 29.94 in 10.0 mi Calm Calm - 0.06 in Rain , Thunderstorm Light Thunderstorms and Rain
9:53 PM 72.0 °F - 69.1 °F 91% 29.92 in 10.0 mi South 4.6 mph - 0.09 in Rain , Thunderstorm Thunderstorms and Rain
10:28 PM 71.6 °F - 69.8 °F 94% 29.93 in 10.0 mi ESE 3.5 mph - 0.02 in   Overcast
10:53 PM 72.0 °F - 70.0 °F 93% 29.90 in 10.0 mi SE 5.8 mph - 0.02 in   Overcast
11:12 PM 73.4 °F - 71.6 °F 94% 29.93 in 10.0 mi South 5.8 mph - N/A   Overcast
11:46 PM 73.4 °F - 71.6 °F 94% 29.91 in 10.0 mi South 4.6 mph - N/A   Overcast
11:53 PM 73.9 °F - 71.1 °F 91% 29.89 in 10.0 mi South 8.1 mph - N/A   Overcast